Time,TemperatureF,DewpointF,PressureIn,WindDirection,WindDirectionDegrees,WindSpeedMPH,WindSpeedGustMPH,Humidity,HourlyPrecipIn,Conditions,Clouds,dailyrainin,SoftwareType,DateUTC
2013-05-19 00:01:00,42.0,28.0,-100.00,NNW,340,6.0,8.0,58,-99.99,,,-99.99,,2013-05-19 07:01:00,
2013-05-19 00:11:00,43.0,28.0,-100.00,North,353,6.0,7.0,56,-99.99,,,-99.99,,2013-05-19 07:11:00,
2013-05-19 00:21:00,42.0,28.0,-100.00,NNE,13,5.0,8.0,57,-99.99,,,-99.99,,2013-05-19 07:21:00,
2013-05-19 00:32:00,42.0,28.0,-100.00,NNE,13,5.0,8.0,57,-99.99,,,-99.99,,2013-05-19 07:32:00,
2013-05-19 00:40:00,39.0,29.0,-100.00,NNW,336,3.0,6.0,68,-99.99,,,-99.99,,2013-05-19 07:40:00,
2013-05-19 00:42:00,42.0,28.0,-100.00,North,11,6.0,8.0,57,-99.99,,,-99.99,,2013-05-19 07:42:00,
2013-05-19 00:52:00,40.0,29.0,-100.00,North,6,7.0,9.0,64,-99.99,,,-99.99,,2013-05-19 07:52:00,
2013-05-19 01:01:00,41.0,29.0,-100.00,North,350,5.0,7.0,63,-99.99,,,-99.99,,2013-05-19 08:01:00,
2013-05-19 01:12:00,41.0,29.0,-100.00,North,350,5.0,7.0,63,-99.99,,,-99.99,,2013-05-19 08:12:00,
2013-05-19 01:21:00,39.0,29.0,-100.00,NNW,336,3.0,6.0,68,-99.99,,,-99.99,,2013-05-19 08:21:00,
2013-05-19 01:32:00,39.0,29.0,-100.00,NNW,336,3.0,6.0,68,-99.99,,,-99.99,,2013-05-19 08:32:00,
2013-05-19 01:52:00,40.0,30.0,-100.00,North,3,5.0,7.0,68,-99.99,,,-99.99,,2013-05-19 08:52:00,
2013-05-19 02:02:00,40.0,31.0,-100.00,NNW,330,5.0,7.0,70,-99.99,,,-99.99,,2013-05-19 09:02:00,
2013-05-19 02:11:00,39.0,30.0,-100.00,NW,322,3.0,5.0,70,-99.99,,,-99.99,,2013-05-19 09:11:00,
2013-05-19 02:21:00,38.0,30.0,-100.00,NNW,336,4.0,5.0,73,-99.99,,,-99.99,,2013-05-19 09:21:00,
2013-05-19 02:32:00,37.0,30.0,-100.00,NNW,328,2.0,4.0,75,-99.99,,,-99.99,,2013-05-19 09:32:00,
2013-05-19 02:42:00,36.0,30.0,-100.00,ESE,121,1.0,4.0,79,-99.99,,,-99.99,,2013-05-19 09:42:00,
2013-05-19 02:53:00,37.0,30.0,-100.00,SSE,148,1.0,4.0,76,-99.99,,,-99.99,,2013-05-19 09:53:00,
2013-05-19 03:00:00,37.0,31.0,-100.00,South,174,2.0,6.0,78,-99.99,,,-99.99,,2013-05-19 10:00:00,
2013-05-19 03:02:00,36.0,30.0,-100.00,South,172,2.0,5.0,80,-99.99,,,-99.99,,2013-05-19 10:02:00,
2013-05-19 03:12:00,35.0,30.0,-100.00,South,182,5.0,6.0,81,-99.99,,,-99.99,,2013-05-19 10:12:00,
2013-05-19 03:22:00,35.0,30.0,-100.00,South,182,5.0,6.0,81,-99.99,,,-99.99,,2013-05-19 10:22:00,
2013-05-19 03:32:00,37.0,32.0,-100.00,SE,124,2.0,3.0,82,-99.99,,,-99.99,,2013-05-19 10:32:00,
2013-05-19 03:42:00,37.0,31.0,-100.00,South,174,2.0,6.0,78,-99.99,,,-99.99,,2013-05-19 10:42:00,
2013-05-19 03:52:00,37.0,31.0,-100.00,South,174,2.0,6.0,78,-99.99,,,-99.99,,2013-05-19 10:52:00,
2013-05-19 05:52:00,36.0,35.0,-100.00,SE,133,3.0,5.0,93,-99.99,,,-99.99,,2013-05-19 12:52:00,
2013-05-19 06:01:00,36.0,35.0,-100.00,SE,131,4.0,6.0,95,-99.99,,,-99.99,,2013-05-19 13:01:00,
2013-05-19 06:11:00,36.0,35.0,-100.00,SE,131,4.0,6.0,95,-99.99,,,-99.99,,2013-05-19 13:11:00,
2013-05-19 06:21:00,37.0,36.0,-100.00,ESE,116,4.0,6.0,93,-99.99,,,-99.99,,2013-05-19 13:21:00,
2013-05-19 06:32:00,37.0,36.0,-100.00,ESE,116,4.0,6.0,93,-99.99,,,-99.99,,2013-05-19 13:32:00,
2013-05-19 06:42:00,38.0,36.0,-100.00,ESE,104,4.0,6.0,94,-99.99,,,-99.99,,2013-05-19 13:42:00,
2013-05-19 06:52:00,38.0,37.0,-100.00,SE,136,4.0,5.0,94,-99.99,,,-99.99,,2013-05-19 13:52:00,
2013-05-19 07:02:00,39.0,37.0,-100.00,SE,133,4.0,6.0,92,-99.99,,,-99.99,,2013-05-19 14:02:00,
2013-05-19 07:11:00,40.0,37.0,-100.00,SE,128,1.0,3.0,91,-99.99,,,-99.99,,2013-05-19 14:11:00,
2013-05-19 07:21:00,40.0,37.0,-100.00,SSW,202,2.0,4.0,87,-99.99,,,-99.99,,2013-05-19 14:21:00,
2013-05-19 07:32:00,40.0,37.0,-100.00,SSW,203,2.0,5.0,88,-99.99,,,-99.99,,2013-05-19 14:32:00,
2013-05-19 07:41:00,40.0,36.0,-100.00,West,274,4.0,11.0,87,-99.99,,,-99.99,,2013-05-19 14:41:00,
2013-05-19 07:51:00,39.0,36.0,-100.00,NNW,329,7.0,14.0,89,-99.99,,,-99.99,,2013-05-19 14:51:00,
2013-05-19 08:01:00,39.0,36.0,-100.00,North,356,9.0,15.0,91,-99.99,,,-99.99,,2013-05-19 15:01:00,
2013-05-19 08:11:00,38.0,36.0,-100.00,North,0,12.0,17.0,93,-99.99,,,-99.99,,2013-05-19 15:11:00,
2013-05-19 08:21:00,39.0,36.0,-100.00,North,1,13.0,17.0,90,-99.99,,,-99.99,,2013-05-19 15:21:00,
2013-05-19 08:33:00,39.0,36.0,-100.00,North,1,13.0,17.0,90,-99.99,,,-99.99,,2013-05-19 15:33:00,
2013-05-19 13:11:00,51.0,34.0,-100.00,NNW,335,16.0,22.0,53,-99.99,,,-99.99,,2013-05-19 20:11:00,
2013-05-19 13:21:00,50.0,34.0,-100.00,NNW,336,15.0,22.0,54,-99.99,,,-99.99,,2013-05-19 20:21:00,
2013-05-19 13:32:00,50.0,34.0,-100.00,NNW,332,14.0,25.0,52,-99.99,,,-99.99,,2013-05-19 20:32:00,
2013-05-19 13:41:00,52.0,32.0,-100.00,NNW,328,15.0,24.0,47,-99.99,,,-99.99,,2013-05-19 20:41:00,
2013-05-19 13:52:00,51.0,35.0,-100.00,NNW,336,17.0,27.0,53,-99.99,,,-99.99,,2013-05-19 20:52:00,
2013-05-19 14:02:00,50.0,33.0,-100.00,NNW,339,18.0,25.0,51,-99.99,,,-99.99,,2013-05-19 21:02:00,
2013-05-19 14:11:00,50.0,33.0,-100.00,NNW,339,18.0,25.0,51,-99.99,,,-99.99,,2013-05-19 21:11:00,
2013-05-19 14:22:00,53.0,34.0,-100.00,NNW,329,14.0,22.0,48,-99.99,,,-99.99,,2013-05-19 21:22:00,
2013-05-19 14:32:00,53.0,32.0,-100.00,NW,320,15.0,24.0,45,-99.99,,,-99.99,,2013-05-19 21:32:00,
2013-05-19 14:43:00,52.0,30.0,-100.00,NW,325,12.0,23.0,43,-99.99,,,-99.99,,2013-05-19 21:43:00,
2013-05-19 14:53:00,54.0,30.0,-100.00,NW,318,9.0,20.0,39,-99.99,,,-99.99,,2013-05-19 21:53:00,
2013-05-19 15:02:00,53.0,30.0,-100.00,NW,320,13.0,24.0,41,-99.99,,,-99.99,,2013-05-19 22:02:00,
2013-05-19 15:12:00,49.0,32.0,-100.00,NNW,332,21.0,41.0,52,-99.99,,,-99.99,,2013-05-19 22:12:00,
2013-05-19 15:23:00,47.0,36.0,-100.00,North,353,18.0,30.0,66,-99.99,,,-99.99,,2013-05-19 22:23:00,
2013-05-19 15:33:00,50.0,32.0,-100.00,NNE,13,18.0,25.0,51,-99.99,,,-99.99,,2013-05-19 22:33:00,
2013-05-19 15:42:00,50.0,32.0,-100.00,NNE,13,18.0,25.0,51,-99.99,,,-99.99,,2013-05-19 22:42:00,
2013-05-19 15:52:00,50.0,33.0,-100.00,NNW,332,23.0,32.0,52,-99.99,,,-99.99,,2013-05-19 22:52:00,
2013-05-19 16:02:00,50.0,33.0,-100.00,NNW,332,23.0,32.0,52,-99.99,,,-99.99,,2013-05-19 23:02:00,
2013-05-19 16:11:00,50.0,34.0,-100.00,North,3,15.0,24.0,53,-99.99,,,-99.99,,2013-05-19 23:11:00,
2013-05-19 16:21:00,50.0,35.0,-100.00,North,357,15.0,26.0,56,-99.99,,,-99.99,,2013-05-19 23:21:00,
2013-05-19 16:32:00,50.0,35.0,-100.00,North,357,15.0,26.0,56,-99.99,,,-99.99,,2013-05-19 23:32:00,
2013-05-19 16:42:00,52.0,32.0,-100.00,NW,326,18.0,27.0,46,-99.99,,,-99.99,,2013-05-19 23:42:00,
2013-05-19 16:52:00,50.0,33.0,-100.00,NNW,328,15.0,23.0,52,-99.99,,,-99.99,,2013-05-19 23:52:00,
2013-05-19 17:02:00,49.0,33.0,-100.00,NW,306,15.0,22.0,55,-99.99,,,-99.99,,2013-05-20 00:02:00,
2013-05-19 17:11:00,45.0,34.0,-100.00,NW,325,21.0,32.0,65,-99.99,,,-99.99,,2013-05-20 00:11:00,
2013-05-19 17:21:00,50.0,32.0,-100.00,NW,326,12.0,21.0,51,-99.99,,,-99.99,,2013-05-20 00:21:00,
2013-05-19 17:32:00,48.0,33.0,-100.00,NW,323,16.0,28.0,57,-99.99,,,-99.99,,2013-05-20 00:32:00,
2013-05-19 17:41:00,48.0,33.0,-100.00,NW,323,16.0,28.0,57,-99.99,,,-99.99,,2013-05-20 00:41:00,
2013-05-19 18:01:00,49.0,32.0,-100.00,WNW,294,6.0,10.0,52,-99.99,,,-99.99,,2013-05-20 01:01:00,
2013-05-19 18:11:00,50.0,33.0,-100.00,NW,304,5.0,11.0,53,-99.99,,,-99.99,,2013-05-20 01:11:00,
2013-05-19 18:21:00,50.0,32.0,-100.00,WNW,284,5.0,10.0,50,-99.99,,,-99.99,,2013-05-20 01:21:00,
2013-05-19 18:31:00,50.0,33.0,-100.00,NW,315,4.0,9.0,53,-99.99,,,-99.99,,2013-05-20 01:31:00,
2013-05-19 18:40:00,50.0,29.0,-100.00,NW,316,12.0,18.0,44,-99.99,,,-99.99,,2013-05-20 01:40:00,
2013-05-19 18:42:00,51.0,33.0,-100.00,WNW,296,4.0,9.0,51,-99.99,,,-99.99,,2013-05-20 01:42:00,
2013-05-19 18:52:00,51.0,33.0,-100.00,WNW,296,4.0,9.0,51,-99.99,,,-99.99,,2013-05-20 01:52:00,
2013-05-19 19:02:00,50.0,32.0,-100.00,NW,323,12.0,17.0,51,-99.99,,,-99.99,,2013-05-20 02:02:00,
2013-05-19 19:11:00,51.0,30.0,-100.00,NW,319,10.0,15.0,44,-99.99,,,-99.99,,2013-05-20 02:11:00,
2013-05-19 19:21:00,50.0,29.0,-100.00,NW,316,12.0,18.0,44,-99.99,,,-99.99,,2013-05-20 02:21:00,
2013-05-19 19:31:00,50.0,29.0,-100.00,NW,316,12.0,18.0,44,-99.99,,,-99.99,,2013-05-20 02:31:00,
2013-05-19 19:52:00,47.0,33.0,-100.00,WNW,294,9.0,13.0,58,-99.99,,,-99.99,,2013-05-20 02:52:00,
2013-05-19 20:01:00,47.0,32.0,-100.00,NNW,333,7.0,11.0,57,-99.99,,,-99.99,,2013-05-20 03:01:00,
2013-05-19 20:11:00,46.0,29.0,-100.00,North,352,9.0,13.0,51,-99.99,,,-99.99,,2013-05-20 03:11:00,
2013-05-19 20:21:00,46.0,28.0,-100.00,NNE,13,9.0,15.0,49,-99.99,,,-99.99,,2013-05-20 03:21:00,
2013-05-19 20:33:00,45.0,28.0,-100.00,North,0,7.0,9.0,52,-99.99,,,-99.99,,2013-05-20 03:33:00,
2013-05-19 20:42:00,45.0,29.0,-100.00,North,6,8.0,17.0,53,-99.99,,,-99.99,,2013-05-20 03:42:00,
2013-05-19 20:52:00,45.0,29.0,-100.00,North,0,10.0,16.0,54,-99.99,,,-99.99,,2013-05-20 03:52:00,
2013-05-19 21:02:00,44.0,29.0,-100.00,North,0,12.0,23.0,56,-99.99,,,-99.99,,2013-05-20 04:02:00,
2013-05-19 21:12:00,44.0,29.0,-100.00,North,4,8.0,14.0,55,-99.99,,,-99.99,,2013-05-20 04:12:00,
2013-05-19 21:23:00,43.0,29.0,-100.00,North,0,4.0,8.0,58,-99.99,,,-99.99,,2013-05-20 04:23:00,
2013-05-19 21:33:00,42.0,29.0,-100.00,North,359,4.0,6.0,59,-99.99,,,-99.99,,2013-05-20 04:33:00,
2013-05-19 21:42:00,41.0,29.0,-100.00,NNW,346,2.0,4.0,60,-99.99,,,-99.99,,2013-05-20 04:42:00,
2013-05-19 21:52:00,41.0,29.0,-100.00,North,4,6.0,12.0,60,-99.99,,,-99.99,,2013-05-20 04:52:00,
2013-05-19 22:02:00,43.0,29.0,-100.00,NNW,344,8.0,15.0,59,-99.99,,,-99.99,,2013-05-20 05:02:00,
2013-05-19 22:11:00,41.0,29.0,-100.00,NNW,342,6.0,8.0,63,-99.99,,,-99.99,,2013-05-20 05:11:00,
2013-05-19 22:21:00,40.0,29.0,-100.00,North,360,6.0,7.0,64,-99.99,,,-99.99,,2013-05-20 05:21:00,
2013-05-19 22:32:00,39.0,29.0,-100.00,North,0,6.0,8.0,67,-99.99,,,-99.99,,2013-05-20 05:32:00,
2013-05-19 22:42:00,38.0,29.0,-100.00,North,356,4.0,6.0,68,-99.99,,,-99.99,,2013-05-20 05:42:00,
2013-05-19 22:51:00,37.0,28.0,-100.00,WSW,237,0.0,5.0,71,-99.99,,,-99.99,,2013-05-20 05:51:00,
2013-05-19 23:01:00,36.0,28.0,-100.00,SSE,151,4.0,5.0,75,-99.99,,,-99.99,,2013-05-20 06:01:00,
2013-05-19 23:11:00,36.0,28.0,-100.00,SSE,151,4.0,5.0,75,-99.99,,,-99.99,,2013-05-20 06:11:00,
2013-05-19 23:21:00,35.0,28.0,-100.00,South,174,0.0,3.0,77,-99.99,,,-99.99,,2013-05-20 06:21:00,
2013-05-19 23:32:00,33.0,27.0,-100.00,SSE,150,0.0,2.0,79,-99.99,,,-99.99,,2013-05-20 06:32:00,
2013-05-19 23:52:00,32.0,27.0,-100.00,North,-999,0.0,0.0,81,-99.99,,,-99.99,,2013-05-20 06:52:00,